BSAT-3C (JCSAT-110R)

Last updated on Thu Jul 03 2025 00:02:45 GMT+0000 (Coordinated Universal Time)

1 37776U 11041B 25183.62414846 -.00000343 00000+0 00000+0 0 9990 2 37776 0.0279 298.8952 0000419 246.9144 69.7265 1.00271467 46976
UTC large
Height (km)
Speed (km/s)
/
Latitude / Longitude
Inclination (degrees)
Orbital Period (minutes)
Azimuth
Elevation
Range (km)
Doppler Factor

Next 0 passes for location: London (51.5072 / 0.1276)

Sorry there are no passes over London.